Meteo Giornale » Osservazioni meteo Italia » Pisa-S Giusto

ore: 15:45 - Osservazioni Meteo Pisa-S Giusto
Lat. 43° 41' N Lon. 10° 23' E Alt. 2 metri s.l.m.

sereno Europe/Rome

14 °C

Sereno

Temp. 24 Ore

5 °C

15 °C

Ovest

14.8 Km/h

Dew point 5 °C

Umidità 54 %

Visibilità  10 Km

Il sole sorge alle ore 06:46

Il sole tramonta alle ore 18:13

Data e Ora Cielo e Fenomeni T °C DP °C Um. % Pres. hPa Vis. km Vento km/h
Oggi h: 15:45 sereno Sereno 14 5 54 1017 10 O 14.8
Oggi h: 15:15 poco_nuvoloso Poco Nuvoloso 15 4 47 1017 10 O 13
Oggi h: 14:45 poco_nuvoloso Poco Nuvoloso 15 5 51 1017 10 O 11.1
Oggi h: 14:15 poco_nuvoloso Poco Nuvoloso 15 5 51 1017 10 O 11.1
Oggi h: 13:45 poco_nuvoloso Poco Nuvoloso 14 3 47 1017 10 O 9.3
Oggi h: 12:45 nuvoloso Nuvoloso 14 3 47 1018 10 O 9.3
Oggi h: 12:15 nuvoloso Nuvoloso 14 7 62 1018 10 N 5.5
Oggi h: 11:45 nuvoloso Nuvoloso 14 7 62 1018 10 N 3.7
Oggi h: 11:15 poco_nuvoloso Poco Nuvoloso 14 8 67 1018 10 N 5.5
Oggi h: 10:45 poco_nuvoloso Poco Nuvoloso 13 9 76 1018 10 E/SE 9.3
Oggi h: 10:15 poco_nuvoloso Poco Nuvoloso 12 9 81 1018 10 E/SE 11.1
Oggi h: 09:45 poco_nuvoloso Poco Nuvoloso 11 8 81 1018 10 SE 11.1
Oggi h: 09:15 sereno Sereno 9 8 93 1018 8 E/SE 9.3
Oggi h: 08:45 poco_nuvoloso Poco Nuvoloso 8 8 100 1018 8 SE 9.3
Oggi h: 08:15 poco_nuvoloso Poco Nuvoloso 7 7 100 1018 8 N 5.5
Oggi h: 07:45 poco_nuvoloso Poco Nuvoloso 6 6 100 1018 6 SE 7.4
Oggi h: 07:15 nuvoloso Nuvoloso 6 6 100 1018 7 N 5.5
Oggi h: 06:45 nuvoloso Nuvoloso 6 6 100 1018 8 N 3.7
Oggi h: 05:45 poco_nuvoloso Poco Nuvoloso 5 5 100 1018 8 N 5.5
Oggi h: 04:45 nebbia Nebbia a Strati 5 5 100 1018 8 E/SE 7.4
Oggi h: 04:15 nebbia Nebbia a Strati 6 6 100 1018 8 N 3.7
Oggi h: 03:45 nebbia Nebbia a Strati 6 6 100 1019 8 N 5.5
Oggi h: 02:45 poco_nuvoloso Poco Nuvoloso 7 7 100 1019 8 E/SE 7.4
Oggi h: 01:45 poco_nuvoloso Poco Nuvoloso 7 7 100 1020 8 E 9.3
Oggi h: 01:15 poco_nuvoloso Poco Nuvoloso 8 7 93 1020 10 E 7.4
Oggi h: 00:45 nuvoloso Nuvoloso 8 7 93 1020 10 N 5.5
Ieri h: 23:45 nuvoloso Nuvoloso 8 7 93 1020 8 N 3.7
Ieri h: 23:15 nebbia Nebbia a Strati 8 7 93 1020 8 N 1.8
Ieri h: 22:45 nebbia Nebbia a Strati 7 7 100 1020 8 N 3.7
Ieri h: 22:15 poco_nuvoloso Poco Nuvoloso 8 8 100 1020 10 N 1.8
Ieri h: 21:45 poco_nuvoloso Poco Nuvoloso 7 7 100 1020 10 N 5.5
Ieri h: 20:45 poco_nuvoloso Poco Nuvoloso 10 8 87 1021 10 N 1.8
Ieri h: 19:45 sereno Sereno 10 8 87 1021 10 N 5.5
Ieri h: 19:15 poco_nuvoloso Poco Nuvoloso 10 8 87 1021 10 N 3.7
Ieri h: 18:45 poco_nuvoloso Poco Nuvoloso 11 8 81 1021 10 N 3.7
Ieri h: 18:15 poco_nuvoloso Poco Nuvoloso 11 8 81 1022 10 O 7.4
Ieri h: 17:45 poco_nuvoloso Poco Nuvoloso 12 8 76 1022 10 O/SO 11.1
Ieri h: 17:15 poco_nuvoloso Poco Nuvoloso 13 7 66 1022 10 SO 14.8
Ieri h: 16:45 poco_nuvoloso Poco Nuvoloso 13 7 66 1022 10 SO 14.8
Ieri h: 16:15 nuvoloso Nuvoloso 14 7 62 1022 10 O/SO 14.8